sat.trackr.live / text

‹ back to catalog

STARLINK-5087

NORAD 54850 · 2022-177AG

PAYLOAD ACTIVE UNKNOWN

§ Identity

Operator
Country
US
Launch date
2022-12-28
Launch site
AFETR
Launch vehicle
Mass (kg)
RCS (m²)

Purposes: comms

External: N2YO · Heavens-Above · Gunter

§ Orbital elements

Epoch: 2026-05-25T03:05:09.841632Z

Period
94.27 min
Inclination
43.0068°
Eccentricity
0.0001942
Mean motion
15.27575709 rev/d
Perigee alt
481.7 km
Apogee alt
484.4 km
Semi-major
6,861.2 km
B*
3.3923e-5
RAAN
49.6686°
Arg perigee
284.0951°
Mean anomaly
75.9684°
Rev number
18,878

§ Raw data

STARLINK-50871 54850U 22177AG  26145.12858613  .00000671  00000+0  33923-4 0  99902 54850  43.0068  49.6686 0001942 284.0951  75.9684 15.27575709188788

JSON: /api/v1/satellites/54850 · /tle

For live sub-satellite position, see the globe view (requires WebGL).

§ Visibility from observer

Set your observer location to see the next 7 days of passes ≥ 10°. The values pass through the URL so the page stays shareable.

No JS? Fill the form by hand. The geolocation button needs JavaScript.